Voltar ao catálogo

MOLNIYA 1-71

AtivoComunicaçõesHEO
NORAD 18946·PAYLOAD·🇷🇺 Russia

Lançado Mar 11, 1988 de Baikonur Cosmodrome

Loading…

Próximas Passagens (próximas 24 horas)

TLE

AtualizadoSource: Space-Track

Época: Sep 13, 2026, 21:21 UTC

1 18946U 88017A   26256.88972257 -.00001469  00000-0 -76507-3 0  9991
2 18946  62.0156 243.1982 7270699 269.2838  14.9468  2.00819630282145

Acompanhe MOLNIYA 1-71 em tempo real com AllMySat

Download on the App Store